This demonstration page uses our WeatherBlox Daily Observations layout. Learn more.

Left ArrowRight Arrow

Hourly Observations for January 25, 2020

Temp ( °F °C ) Dew Point ( °F °C ) Humidity (%) Winds ( mph kmh ) Pressure ( in mb ) Visibility ( mi km ) Precip ( " mm )
12:53 am 00:53 Cloudy 26 -3.3 23 -5 88 88 W 6 9 30.12 1020 9 14 0.00 0.00
1:32 am 01:32 Cloudy 25 -4 23 -5 93 93 SW 3 6 30.16 1021 8 13 0.00 0.00
1:53 am 01:53 Cloudy with Mist and Fog 25 -3.9 23 -5 92 92 W 9 15 30.10 1019 2 3 0.00 0.00
2:00 am 02:00 Cloudy with Mist and Fog 25 -3.9 23 -5 92 92 W 8 13 30.16 1021 1 2 0.00 0.00
2:13 am 02:13 Cloudy with Mist and Fog 25 -3.9 24 -4.4 96 96 WSW 10 17 30.16 1021 3 5 0.00 0.00
2:30 am 02:30 Cloudy with Mist and Fog 25 -3.9 23 -5 92 92 W 10 17 30.16 1021 2 3 0.00 0.00
2:40 am 02:40 Mostly Cloudy with Freezing Fog 24 -4.4 23 -5 96 96 WSW 6 9 30.16 1021 1 1 0.00 0.00
2:53 am 02:53 Mostly Cloudy with Freezing Fog 24 -4.4 23 -5 96 96 W 6 9 30.11 1020 1 1 0.00 0.00
3:53 am 03:53 Mostly Cloudy with Freezing Fog 23 -5 23 -5 100 100 Calm 30.09 1019 0 0 0.00 0.00
4:53 am 04:53 Mostly Cloudy with Freezing Fog 24 -4.4 23 -5 96 96 SSW 5 7 30.09 1019 0 0 0.00 0.00
5:42 am 05:42 Cloudy with Mist and Fog 23 -5 22 -5.6 96 96 SSW 3 6 30.15 1021 1 2 0.00 0.00
5:53 am 05:53 Cloudy with Mist and Fog 24 -4.4 22 -5.6 91 91 SSW 3 6 30.09 1019 2 3 0.00 0.00
6:00 am 06:00 Cloudy with Mist and Fog 25 -4 21 -6 86 86 SSW 3 6 30.14 1021 3 4 0.00 0.00
6:20 am 06:20 Cloudy with Mist and Fog 25 -4 21 -6 86 86 S 3 6 30.14 1021 4 6 0.00 0.00
6:53 am 06:53 Cloudy with Mist and Fog 25 -3.9 23 -5 92 92 S 3 6 30.08 1019 6 10 0.00 0.00
7:53 am 07:53 Cloudy 25 -3.9 23 -5 92 92 SSE 6 9 30.08 1019 7 11 0.00 0.00
8:39 am 08:39 Cloudy 25 -3.9 23 -5 92 92 SSE 6 9 30.14 1021 7 11 0.00 0.00
8:53 am 08:53 Cloudy 25 -3.9 23 -5 92 92 S 6 9 30.10 1019 8 13 0.00 0.00
9:53 am 09:53 Cloudy 25 -3.9 23 -5 92 92 SSE 9 15 30.09 1019 9 14 0.00 0.00
10:26 am 10:26 Mostly Cloudy 27 -2.8 24 -4.4 89 89 SSE 7 11 30.13 1020 10 16 0.00 0.00
10:51 am 10:51 Mostly Cloudy 27 -3 25 -4 93 93 S 7 11 30.13 1020 10 16 0.00 0.00
10:53 am 10:53 Mostly Cloudy 27 -2.8 25 -3.9 92 92 S 7 11 30.09 1019 10 16 0.00 0.00
11:00 am 11:00 Mostly Cloudy 28 -2.2 26 -3.3 92 92 S 7 11 30.12 1020 9 14 0.00 0.00
11:18 am 11:18 Cloudy 29 -1.7 27 -2.8 92 92 SSW 7 11 30.12 1020 10 16 0.00 0.00
11:53 am 11:53 Cloudy 30 -1.1 27 -2.8 88 88 SSW 6 9 30.08 1019 9 14 0.00 0.00
12:53 pm 12:53 Mostly Cloudy 33 0.6 29 -1.7 85 85 SSW 10 17 30.03 1017 10 16 0.00 0.00
1:04 pm 13:04 Partly Cloudy 34 1.1 30 -1.1 85 85 SW 6 9 30.05 1017 10 16 0.00 0.00
1:35 pm 13:35 Mostly Cloudy 34 1.1 29 -1.7 82 82 SW 7 11 30.04 1017 10 16 0.00 0.00
1:53 pm 13:53 Cloudy 34 1.1 29 -1.7 82 82 SSW 9 15 30.01 1016 10 16 0.00 0.00
2:31 pm 14:31 Cloudy 34 1.1 29 -1.7 82 82 SSW 8 13 30.02 1016 10 16 0.00 0.00
2:53 pm 14:53 Cloudy 34 1.1 29 -1.7 82 82 SSW 9 15 30.00 1016 10 16 0.00 0.00
3:22 pm 15:22 Cloudy 34 1.1 30 -1.1 85 85 SW 6 9 30.02 1016 10 16 0.00 0.00
3:53 pm 15:53 Cloudy 34 1.1 30 -1.1 85 85 SW 7 11 30.00 1016 10 16 0.00 0.00
4:29 pm 16:29 Partly Cloudy 34 1.1 30 -1.1 85 85 SSW 8 13 30.01 1016 9 14 0.00 0.00
4:53 pm 16:53 Sunny 34 1.1 30 -1.1 85 85 SSW 8 13 29.99 1016 8 13 0.00 0.00
5:53 pm 17:53 Clear 33 0.6 30 -1.1 89 89 SSW 7 11 30.00 1016 7 11 0.00 0.00
6:53 pm 18:53 Clear 32 0 29 -1.7 88 88 SW 3 6 30.01 1016 7 11 0.00 0.00
7:53 pm 19:53 Clear 31 -0.6 29 -1.7 92 92 SW 3 6 30.02 1017 7 11 0.00 0.00
8:53 pm 20:53 Partly Cloudy 32 0 29 -1.7 88 88 SW 3 6 30.02 1017 8 13 0.00 0.00
9:53 pm 21:53 Mostly Clear 32 0 29 -1.7 88 88 WSW 5 7 30.03 1017 8 13 0.00 0.00
10:53 pm 22:53 Partly Cloudy 32 0 30 -1.1 92 92 WSW 6 9 30.04 1017 9 14 0.00 0.00
11:53 pm 23:53 Mostly Clear 33 0.6 30 -1.1 89 89 W 7 11 30.04 1017 10 16 0.00 0.00

Powered by AerisWeather